Zurück zum Katalog

STARLINK-36374

AktivKommunikationVLEO
NORAD 67417·PAYLOAD·🇺🇸 United States

Gestartet Jan 12, 2026 von Cape Canaveral Space Force Station

Loading…

Nächste Überflüge (nächste 24 Stunden)

TLE

AktuellSource: CelesTrak SupGP

Epoche: Sep 15, 2026, 03:01 UTC

1 67417C 26005P   26258.12618056 -.00031202  00000+0 -11302-2 0  2586
2 67417  43.0023 248.2514 0001502 268.9942 217.6865 15.27591262    19

Verfolge STARLINK-36374 in Echtzeit mit AllMySat

Download on the App Store